STARLINK-4455, 53500

Orbit data source: Space-Track

STARLINK-4455, 53500 is a payload satellite owned by SpaceX/Seattle (US) in SSO that was launched on Fri, 12 Aug 2022 UTC via an FALCON 9 launch vehicle from the Air Force Western Test Range (AFWTR). Payload-class satellites include a variety of spacecraft equipped with specific instruments for various scientific and technological missions. These include communications satellites like Starlink; space stations such as the ISS; scientific satellites like the Hubble; Earth observation satellites from companies like Planet Labs, Umbra, and HawkEye 360; GPS; miniature CubeSats for education and research; and military/defense satellites.

Loading next visibility...
Identifier
53500, 2022-099AM
Orbit
SSO
Country
Flag of USUS
Related business
Manufacturer
SpaceX/Seattle
Mission
Operational Commercial Communications
Bus & Motor
STARLINK, Unknown motor
Mass
300 kg wet, ~275 kg dry
Launch date (UTC)
2022-08-12 (3 years ago)
Launch vehicle
FALCON 9
Launch site
Air Force Western Test Range (AFWTR)
Object type
Payload
Rocket body
Debris
Shape & HBR
Box + 1 Pan, 4.4 m
Radar Cross Section
13.562 m², Large (>1 m²)

Expand to show TLE details & history
Last TLE update: 14 hours ago

TLE from 14 hours ago
0 STARLINK-4455
1 53500U 22099AM  25259.05032382  .00000762  00000-0  63824-4 0  9993
2 53500  97.6021  19.2395 0002689 207.0311 153.0774 15.01271628169789
Epoch: 2025-09-16T01:12Z
TLE epoch observation values (Epoch: 2025-09-16T01:12:27.978Z)
Latitude
0.00003°
Longitude
5.87673°
Altitude
567.698 km
Speed
7.576 km/s
True Right ascension
01h 16m 57s
True Declination
0° 00' 00"
Sunlit
Object was in full shadow at epoch
Visualization orbit readout
Latitude
Unknown
Longitude
Unknown
Altitude
Unknown
Speed
Unknown
Apparent Right ascension
Unknown
Apparent Declination
Unknown
Sunlit
N/A
Visualization observer readout
Local Sidereal Time
08:16:24
Azimuth
Unknown
Elevation
Unknown
Doppler factor
Unknown
Orbital elements
Apogee altitude
561.839 km
Perigee altitude
558.108 km
Semi-major axis
6,938.11 km
Eccentricity
0.00027
Inclination
97.6021°
RAAN
19.2395°
Arg. of periapsis
207.0311°
True anomaly
153.09135°
Mean anomaly
153.0774°
Eccentric anomaly
153.08437°
Mean motion
3.75562 °/min
Orbital period
95.86 mins
BSTAR
0.000063824
Loading maneuver chart data...
Computing Atmospheric mass density...
Loading historical data...
Loading historical data...
Loading historical data...
Loading historical data...
Loading historical data...
Loading historical data...
Loading historical data...

Documentation

Showing up to 5 results
|